Location: Santa Cristina
(46.5667°N, 11.7167°E)
Time: 04:32:11
(UTC+00:00)

ARIANE 5 R/B - Pass Details

Date: 21 April 2021
Orbit: 749 x 794 km, 98.7° (Epoch: 10 May)

Event Time Altitude Azimuth Distance (km) Brightness Sun altitude
Rises 01:25:12 0° 24° (NNE) 3,307 7.1 -24.4°
Reaches altitude 10° 01:27:56 10° 38° (NE) 2,372 6.1 -24.1°
Maximum altitude 01:32:16 26° 94° (E) 1,527 4.3 -23.6°
Enters shadow 01:35:59 13° 145° (SE) 2,169 4.7 -23.2°
